Time,TemperatureF,DewpointF,PressureIn,WindDirection,WindDirectionDegrees,WindSpeedMPH,WindSpeedGustMPH,Humidity,HourlyPrecipIn,Conditions,Clouds,dailyrainin,SolarRadiationWatts/m^2,SoftwareType,DateUTC
2013-01-29 00:04:00,52.0,46.0,-100.00,SW,216,3.0,9.0,80,0.00,,,0.00,0.000000,,2013-01-29 05:04:00,
2013-01-29 00:32:00,51.0,46.0,-100.00,SW,214,0.0,10.0,83,0.00,,,0.00,0.000000,,2013-01-29 05:32:00,
2013-01-29 00:43:00,51.0,46.0,-100.00,SW,214,0.0,10.0,83,0.00,,,0.00,0.000000,,2013-01-29 05:43:00,
2013-01-29 00:52:00,51.0,46.0,-100.00,SW,214,0.0,10.0,83,0.00,,,0.00,0.000000,,2013-01-29 05:52:00,
2013-01-29 01:02:00,51.0,46.0,-100.00,SW,214,0.0,10.0,83,0.00,,,0.00,0.000000,,2013-01-29 06:02:00,
2013-01-29 01:32:00,46.0,43.0,-100.00,SSE,159,0.0,3.0,89,0.00,,,0.00,0.000000,,2013-01-29 06:32:00,
2013-01-29 01:42:00,46.0,43.0,-100.00,SSE,159,0.0,3.0,89,0.00,,,0.00,0.000000,,2013-01-29 06:42:00,
2013-01-29 01:52:00,46.0,43.0,-100.00,SSE,159,0.0,3.0,89,0.00,,,0.00,0.000000,,2013-01-29 06:52:00,
2013-01-29 02:02:00,46.0,43.0,-100.00,SSE,159,0.0,3.0,89,0.00,,,0.00,0.000000,,2013-01-29 07:02:00,
2013-01-29 02:32:00,45.0,44.0,-100.00,South,179,0.0,0.0,95,0.00,,,0.00,0.000000,,2013-01-29 07:32:00,
2013-01-29 02:42:00,45.0,44.0,-100.00,South,179,0.0,0.0,95,0.00,,,0.00,0.000000,,2013-01-29 07:42:00,
2013-01-29 02:52:00,45.0,44.0,-100.00,South,179,0.0,0.0,95,0.00,,,0.00,0.000000,,2013-01-29 07:52:00,
2013-01-29 03:02:00,45.0,44.0,-100.00,South,179,0.0,0.0,95,0.00,,,0.00,0.000000,,2013-01-29 08:02:00,
2013-01-29 03:32:00,46.0,44.0,-100.00,SSW,195,0.0,5.0,93,0.00,,,0.00,0.000000,,2013-01-29 08:32:00,
2013-01-29 03:42:00,46.0,44.0,-100.00,SSW,195,0.0,5.0,93,0.00,,,0.00,0.000000,,2013-01-29 08:42:00,
2013-01-29 03:52:00,46.0,44.0,-100.00,SSW,195,0.0,5.0,93,0.00,,,0.00,0.000000,,2013-01-29 08:52:00,
2013-01-29 04:02:00,46.0,44.0,-100.00,SSW,195,0.0,5.0,93,0.00,,,0.00,0.000000,,2013-01-29 09:02:00,
2013-01-29 04:32:00,43.0,41.0,-100.00,South,180,0.0,0.0,94,0.00,,,0.00,0.000000,,2013-01-29 09:32:00,
2013-01-29 04:42:00,43.0,41.0,-100.00,South,180,0.0,0.0,94,0.00,,,0.00,0.000000,,2013-01-29 09:42:00,
2013-01-29 04:52:00,43.0,41.0,-100.00,South,180,0.0,0.0,94,0.00,,,0.00,0.000000,,2013-01-29 09:52:00,
2013-01-29 05:02:00,43.0,41.0,-100.00,South,180,0.0,0.0,94,0.00,,,0.00,0.000000,,2013-01-29 10:02:00,
2013-01-29 05:32:00,43.0,42.0,-100.00,SSE,150,0.0,0.0,96,0.00,,,0.00,0.000000,,2013-01-29 10:32:00,
2013-01-29 05:42:00,43.0,42.0,-100.00,SSE,150,0.0,0.0,96,0.00,,,0.00,0.000000,,2013-01-29 10:42:00,
2013-01-29 05:52:00,43.0,42.0,-100.00,SSE,150,0.0,0.0,96,0.00,,,0.00,0.000000,,2013-01-29 10:52:00,
2013-01-29 06:02:00,43.0,42.0,-100.00,SSE,150,0.0,0.0,96,0.00,,,0.00,0.000000,,2013-01-29 11:02:00,
2013-01-29 06:32:00,45.0,44.0,-100.00,SW,226,0.0,0.0,96,0.00,,,0.00,0.000000,,2013-01-29 11:32:00,
2013-01-29 06:42:00,45.0,44.0,-100.00,SW,226,0.0,0.0,96,0.00,,,0.00,0.000000,,2013-01-29 11:42:00,
2013-01-29 06:53:00,45.0,44.0,-100.00,SW,226,0.0,0.0,96,0.00,,,0.00,0.000000,,2013-01-29 11:53:00,
2013-01-29 07:03:00,45.0,44.0,-100.00,SW,226,0.0,0.0,96,0.00,,,0.00,0.000000,,2013-01-29 12:03:00,
2013-01-29 07:33:00,45.0,44.0,-100.00,NNW,330,0.0,0.0,95,0.00,,,0.00,0.000000,,2013-01-29 12:33:00,
2013-01-29 07:43:00,45.0,44.0,-100.00,NNW,330,0.0,0.0,95,0.00,,,0.00,0.000000,,2013-01-29 12:43:00,
2013-01-29 07:53:00,45.0,44.0,-100.00,NNW,330,0.0,0.0,95,0.00,,,0.00,0.000000,,2013-01-29 12:53:00,
2013-01-29 08:02:00,45.0,44.0,-100.00,NNW,330,0.0,0.0,95,0.00,,,0.00,0.000000,,2013-01-29 13:02:00,
2013-01-29 08:32:00,45.0,43.0,-100.00,SSE,153,0.0,0.0,94,0.00,,,0.00,7.000000,,2013-01-29 13:32:00,
2013-01-29 08:43:00,45.0,43.0,-100.00,SSE,153,0.0,0.0,94,0.00,,,0.00,7.000000,,2013-01-29 13:43:00,
2013-01-29 08:53:00,45.0,43.0,-100.00,SSE,153,0.0,0.0,94,0.00,,,0.00,7.000000,,2013-01-29 13:53:00,
2013-01-29 09:02:00,45.0,43.0,-100.00,SSE,153,0.0,0.0,94,0.00,,,0.00,7.000000,,2013-01-29 14:02:00,
2013-01-29 09:33:00,48.0,46.0,-100.00,WSW,244,0.0,0.0,93,0.00,,,0.00,34.000000,,2013-01-29 14:33:00,
2013-01-29 09:43:00,48.0,46.0,-100.00,WSW,244,0.0,0.0,93,0.00,,,0.00,34.000000,,2013-01-29 14:43:00,
2013-01-29 09:53:00,48.0,46.0,-100.00,WSW,244,0.0,0.0,93,0.00,,,0.00,34.000000,,2013-01-29 14:53:00,
2013-01-29 10:03:00,48.0,46.0,-100.00,WSW,244,0.0,0.0,93,0.00,,,0.00,34.000000,,2013-01-29 15:03:00,
2013-01-29 10:33:00,50.0,47.0,-100.00,NW,319,2.0,4.0,90,0.00,,,0.00,44.000000,,2013-01-29 15:33:00,
2013-01-29 10:43:00,50.0,47.0,-100.00,NW,319,2.0,4.0,90,0.00,,,0.00,44.000000,,2013-01-29 15:43:00,
2013-01-29 10:53:00,50.0,47.0,-100.00,NW,319,2.0,4.0,90,0.00,,,0.00,44.000000,,2013-01-29 15:53:00,
2013-01-29 11:03:00,50.0,47.0,-100.00,NW,319,2.0,4.0,90,0.00,,,0.00,44.000000,,2013-01-29 16:03:00,
2013-01-29 11:33:00,53.0,49.0,-100.00,ESE,119,0.0,3.0,86,0.00,,,0.00,61.000000,,2013-01-29 16:33:00,
2013-01-29 11:43:00,53.0,49.0,-100.00,ESE,119,0.0,3.0,86,0.00,,,0.00,61.000000,,2013-01-29 16:43:00,
2013-01-29 11:53:00,53.0,49.0,-100.00,ESE,119,0.0,3.0,86,0.00,,,0.00,61.000000,,2013-01-29 16:53:00,
2013-01-29 12:03:00,53.0,49.0,-100.00,ESE,119,0.0,3.0,86,0.00,,,0.00,61.000000,,2013-01-29 17:03:00,
2013-01-29 12:33:00,54.0,49.0,-100.00,NNW,344,0.0,0.0,84,0.00,,,0.00,54.000000,,2013-01-29 17:33:00,
2013-01-29 12:42:00,54.0,49.0,-100.00,NNW,344,0.0,0.0,84,0.00,,,0.00,54.000000,,2013-01-29 17:42:00,
2013-01-29 12:53:00,54.0,49.0,-100.00,NNW,344,0.0,0.0,84,0.00,,,0.00,54.000000,,2013-01-29 17:53:00,
2013-01-29 13:04:00,54.0,49.0,-100.00,NNW,344,0.0,0.0,84,0.00,,,0.00,54.000000,,2013-01-29 18:04:00,
2013-01-29 13:33:00,55.0,50.0,-100.00,NW,316,2.0,5.0,84,0.00,,,0.00,87.000000,,2013-01-29 18:33:00,
2013-01-29 13:42:00,55.0,50.0,-100.00,NW,316,2.0,5.0,84,0.00,,,0.00,87.000000,,2013-01-29 18:42:00,
2013-01-29 13:52:00,55.0,50.0,-100.00,NW,316,2.0,5.0,84,0.00,,,0.00,87.000000,,2013-01-29 18:52:00,
2013-01-29 14:03:00,55.0,50.0,-100.00,NW,316,2.0,5.0,84,0.00,,,0.00,87.000000,,2013-01-29 19:03:00,
2013-01-29 14:33:00,56.0,52.0,-100.00,NNW,327,0.0,0.0,87,0.00,,,0.00,126.000000,,2013-01-29 19:33:00,
2013-01-29 14:42:00,56.0,52.0,-100.00,NNW,327,0.0,0.0,87,0.00,,,0.00,126.000000,,2013-01-29 19:42:00,
2013-01-29 14:52:00,56.0,52.0,-100.00,NNW,327,0.0,0.0,87,0.00,,,0.00,126.000000,,2013-01-29 19:52:00,
2013-01-29 15:03:00,56.0,52.0,-100.00,NNW,327,0.0,0.0,87,0.00,,,0.00,126.000000,,2013-01-29 20:03:00,
2013-01-29 15:33:00,57.0,53.0,-100.00,NW,321,0.0,0.0,87,0.00,,,-99.99,97.000000,,2013-01-29 20:33:00,
2013-01-29 15:42:00,57.0,53.0,-100.00,NW,321,0.0,0.0,87,0.00,,,-99.99,97.000000,,2013-01-29 20:42:00,
2013-01-29 15:53:00,57.0,53.0,-100.00,NW,321,0.0,0.0,87,0.00,,,-99.99,97.000000,,2013-01-29 20:53:00,
2013-01-29 16:03:00,57.0,53.0,-100.00,NW,321,0.0,0.0,87,0.00,,,-99.99,97.000000,,2013-01-29 21:03:00,
2013-01-29 16:34:00,58.0,54.0,-100.00,WSW,253,0.0,0.0,86,0.00,,,0.00,96.000000,,2013-01-29 21:34:00,
2013-01-29 16:42:00,58.0,54.0,-100.00,WSW,253,0.0,0.0,86,0.00,,,0.00,96.000000,,2013-01-29 21:42:00,
2013-01-29 16:53:00,58.0,54.0,-100.00,WSW,253,0.0,0.0,86,0.00,,,0.00,96.000000,,2013-01-29 21:53:00,
2013-01-29 17:03:00,58.0,54.0,-100.00,WSW,253,0.0,0.0,86,0.00,,,0.00,96.000000,,2013-01-29 22:03:00,
2013-01-29 17:33:00,57.0,53.0,-100.00,WNW,296,0.0,0.0,86,0.00,,,0.00,60.000000,,2013-01-29 22:33:00,
2013-01-29 17:43:00,57.0,53.0,-100.00,WNW,296,0.0,0.0,86,0.00,,,0.00,60.000000,,2013-01-29 22:43:00,
2013-01-29 17:53:00,57.0,53.0,-100.00,WNW,296,0.0,0.0,86,0.00,,,0.00,60.000000,,2013-01-29 22:53:00,
2013-01-29 18:02:00,57.0,53.0,-100.00,WNW,296,0.0,0.0,86,0.00,,,0.00,60.000000,,2013-01-29 23:02:00,
2013-01-29 18:33:00,56.0,53.0,-100.00,ESE,117,0.0,0.0,90,0.00,,,0.00,14.000000,,2013-01-29 23:33:00,
2013-01-29 18:42:00,56.0,53.0,-100.00,ESE,117,0.0,0.0,90,0.00,,,0.00,14.000000,,2013-01-29 23:42:00,
2013-01-29 18:53:00,56.0,53.0,-100.00,ESE,117,0.0,0.0,90,0.00,,,0.00,14.000000,,2013-01-29 23:53:00,
2013-01-29 19:03:00,56.0,53.0,-100.00,ESE,117,0.0,0.0,90,0.00,,,0.00,14.000000,,2013-01-30 00:03:00,
2013-01-29 19:33:00,55.0,53.0,-100.00,NW,326,0.0,0.0,92,0.00,,,0.00,0.000000,,2013-01-30 00:33:00,
2013-01-29 19:43:00,55.0,53.0,-100.00,NW,326,0.0,0.0,92,0.00,,,0.00,0.000000,,2013-01-30 00:43:00,
2013-01-29 19:53:00,55.0,53.0,-100.00,NW,326,0.0,0.0,92,0.00,,,0.00,0.000000,,2013-01-30 00:53:00,
2013-01-29 20:02:00,55.0,53.0,-100.00,NW,326,0.0,0.0,92,0.00,,,0.00,0.000000,,2013-01-30 01:02:00,
2013-01-29 20:32:00,54.0,52.0,-100.00,ESE,105,0.0,0.0,93,0.00,,,0.00,0.000000,,2013-01-30 01:32:00,
2013-01-29 20:43:00,54.0,52.0,-100.00,ESE,105,0.0,0.0,93,0.00,,,0.00,0.000000,,2013-01-30 01:43:00,
2013-01-29 20:52:00,54.0,52.0,-100.00,ESE,105,0.0,0.0,93,0.00,,,0.00,0.000000,,2013-01-30 01:52:00,
2013-01-29 21:02:00,54.0,52.0,-100.00,ESE,105,0.0,0.0,93,0.00,,,0.00,0.000000,,2013-01-30 02:02:00,
2013-01-29 21:33:00,53.0,51.0,-100.00,SSE,156,0.0,0.0,94,0.00,,,0.00,0.000000,,2013-01-30 02:33:00,
2013-01-29 21:42:00,53.0,51.0,-100.00,SSE,156,0.0,0.0,94,0.00,,,0.00,0.000000,,2013-01-30 02:42:00,
2013-01-29 21:53:00,53.0,51.0,-100.00,SSE,156,0.0,0.0,94,0.00,,,0.00,0.000000,,2013-01-30 02:53:00,
2013-01-29 22:03:00,53.0,51.0,-100.00,SSE,156,0.0,0.0,94,0.00,,,0.00,0.000000,,2013-01-30 03:03:00,
2013-01-29 22:32:00,53.0,52.0,-100.00,SW,227,0.0,0.0,96,0.00,,,0.00,0.000000,,2013-01-30 03:32:00,
2013-01-29 22:42:00,53.0,52.0,-100.00,SW,227,0.0,0.0,96,0.00,,,0.00,0.000000,,2013-01-30 03:42:00,
2013-01-29 22:52:00,53.0,52.0,-100.00,SW,227,0.0,0.0,96,0.00,,,0.00,0.000000,,2013-01-30 03:52:00,
2013-01-29 23:02:00,53.0,52.0,-100.00,SW,227,0.0,0.0,96,0.00,,,0.00,0.000000,,2013-01-30 04:02:00,
2013-01-29 23:32:00,51.0,50.0,-100.00,SSW,203,0.0,0.0,97,0.00,,,0.00,0.000000,,2013-01-30 04:32:00,
2013-01-29 23:42:00,51.0,50.0,-100.00,SSW,203,0.0,0.0,97,0.00,,,0.00,0.000000,,2013-01-30 04:42:00,
2013-01-29 23:52:00,51.0,50.0,-100.00,SSW,203,0.0,0.0,97,0.00,,,0.00,0.000000,,2013-01-30 04:52:00,